LiveATC.Net - Listen to live air traffic control over the Internet!


ICAO: KMLB  IATA: MLB   Airport: Melbourne International Airport
City: Melbourne   State/Province: Florida
Country: United States   Continent: North America
KMLB METAR Weather: KMLB 240553Z AUTO 01006KT 10SM FEW024 26/23 A2992 RMK AO2 SLP132 T02610228 10272 20261 58012
KMLB Flight Activity (FlightAware)
KMLB Airport Info   (iFlightPlanner)
KMLB VFR Sectional Chart   (iFlightPlanner) 
KMLB IFR Low Chart   (iFlightPlanner) 

KMLB Twr/App
Feed Status: DOWN
Last heard on: 2021-09-23 19:21:39 (0 days 11 hours 25 minutes ago)
Archive Access: KMLB Twr/App
FacilityFrequency
Melbourne Tower118.200
Orlando Approach132.650
Sponsored by:
Melbourne Area Pilots Association

NOTICE

Unauthorized use prohibited. See LiveATC.net Terms of Service


Airport/ARTCC Code
Frequency Search
(e.g., 124.400, 128.75)
Site-wide search
 


Browse Feeds
Top 50 Feeds
HF Oceanic Feeds
Coverage Map
Bad Weather Areas

LiveATC FAQ
Offer LiveATC feed
Contact LiveATC.net
Press Inquiries

LiveATC on iPhone
LiveATC on Android

Windows Phone
Windows 8/10

LiveATC Mobile
(Mobile browser)

ATC Audio Archives
Interesting Recordings

LiveATC Forums


Home Page
About LiveATC.net
Make a Donation
Terms of Use
Privacy Policy

Canadian Air Freqs

AIRMETs/SIGMETs

FAA Airport Status
NAS Status
Arrival Demand


Server Software By:
Icecast.org
Liquidsoap